Tracking 27112 objects as of 27-Mar-2023
HD Live streaming from Space Station
objects crossing your sky now

STARLINK-2601

Track STARLINK-2601 now!
10-day predictions
STARLINK-2601 is classified as:


NORAD ID: 48384
Int'l Code: 2021-038AH
Perigee: 553.2 km
Apogee: 555.4 km
Inclination: 53.1 °
Period: 95.6 minutes
Semi major axis: 6925 km
RCS: Unknown
Launch date: May 4, 2021
Source: United States (US)
Launch site: AIR FORCE EASTERN TEST RANGE (AFETR)
Your satellite tracking list
Your tracking list is empty




NASA's NSSDC Master Catalog

Two Line Element Set (TLE):
1 48384U 21038AH  23085.91668955  .00016845  00000-0  11470-2 0  9997
2 48384  53.0517 154.4182 0001594  60.2142 299.9005 15.06401565105798
Source of the keplerian elements: AFSPC